Location: East Irvine
(33.6759°N, 117.7598°W)
Time: 02:01:57
(UTC+00:00)

Cosmos 1943 Rocket - Pass Details

Date: 15 November 2025
Orbit: 812 x 841 km, 71.0° (Epoch: 07 December)

Event Time Altitude Azimuth Distance (km) Brightness Sun altitude
Rises 01:20:22 0° 188° (S) 3,375 5.7 -7.1°
Reaches altitude 10° 01:22:51 10° 184° (S) 2,442 4.9 -7.6°
Maximum altitude 01:28:19 57° 107° (ESE) 973 2.3 -8.7°
Drops below altitude 10° 01:33:48 10° 30° (NNE) 2,440 4.2 -9.8°
Sets 01:36:15 0° 26° (NNE) 3,372 4.9 -10.3°
Enters shadow 01:36:19 - 26° (NNE) 3,395 4.9 -10.3°
